Time,TemperatureF,DewpointF,PressureIn,WindDirection,WindDirectionDegrees,WindSpeedMPH,WindSpeedGustMPH,Humidity,HourlyPrecipIn,Conditions,Clouds,dailyrainin,SolarRadiationWatts/m^2,SoftwareType,DateUTC
2013-09-17 00:44:00,71.0,70.0,-100.00,ENE,69,2.0,5.0,98,0.00,,,0.29,0.000000,,2013-09-17 04:44:00,
2013-09-17 00:54:00,71.0,70.0,-100.00,ENE,69,2.0,5.0,98,0.00,,,0.29,0.000000,,2013-09-17 04:54:00,
2013-09-17 01:04:00,71.0,70.0,-100.00,ENE,69,2.0,5.0,98,0.00,,,0.29,0.000000,,2013-09-17 05:04:00,
2013-09-17 01:42:00,72.0,71.0,-100.00,SW,216,2.0,6.0,98,0.00,,,0.29,0.000000,,2013-09-17 05:42:00,
2013-09-17 01:52:00,72.0,71.0,-100.00,SW,216,2.0,6.0,98,0.00,,,0.29,0.000000,,2013-09-17 05:52:00,
2013-09-17 02:02:00,72.0,71.0,-100.00,SW,216,2.0,6.0,98,0.00,,,0.29,0.000000,,2013-09-17 06:02:00,
2013-09-17 02:42:00,71.0,70.0,-100.00,SE,143,6.0,10.0,98,0.00,,,0.29,0.000000,,2013-09-17 06:42:00,
2013-09-17 02:52:00,71.0,70.0,-100.00,SE,143,6.0,10.0,98,0.00,,,0.29,0.000000,,2013-09-17 06:52:00,
2013-09-17 03:02:00,71.0,70.0,-100.00,SE,143,6.0,10.0,98,0.00,,,0.29,0.000000,,2013-09-17 07:02:00,
2013-09-17 03:43:00,71.0,70.0,-100.00,SSE,147,6.0,11.0,96,0.00,,,0.29,0.000000,,2013-09-17 07:43:00,
2013-09-17 03:52:00,71.0,70.0,-100.00,SSE,147,6.0,11.0,96,0.00,,,0.29,0.000000,,2013-09-17 07:52:00,
2013-09-17 04:02:00,71.0,70.0,-100.00,SSE,147,6.0,11.0,96,0.00,,,0.29,0.000000,,2013-09-17 08:02:00,
2013-09-17 04:42:00,71.0,65.0,-100.00,SSE,164,8.0,14.0,82,0.00,,,0.29,0.000000,,2013-09-17 08:42:00,
2013-09-17 04:52:00,71.0,65.0,-100.00,SSE,164,8.0,14.0,82,0.00,,,0.29,0.000000,,2013-09-17 08:52:00,
2013-09-17 05:02:00,71.0,65.0,-100.00,SSE,164,8.0,14.0,82,0.00,,,0.29,0.000000,,2013-09-17 09:02:00,
2013-09-17 05:43:00,71.0,64.0,-100.00,SSE,166,7.0,17.0,79,0.00,,,0.16,0.000000,,2013-09-17 09:43:00,
2013-09-17 05:53:00,71.0,64.0,-100.00,SSE,166,7.0,17.0,79,0.00,,,0.16,0.000000,,2013-09-17 09:53:00,
2013-09-17 06:03:00,71.0,64.0,-100.00,SSE,166,7.0,17.0,79,0.00,,,0.16,0.000000,,2013-09-17 10:03:00,
2013-09-17 06:42:00,68.0,63.0,-100.00,SSE,156,5.0,10.0,84,0.00,,,0.00,0.000000,,2013-09-17 10:42:00,
2013-09-17 06:53:00,68.0,63.0,-100.00,SSE,156,5.0,10.0,84,0.00,,,0.00,0.000000,,2013-09-17 10:53:00,
2013-09-17 07:03:00,68.0,63.0,-100.00,SSE,156,5.0,10.0,84,0.00,,,0.00,0.000000,,2013-09-17 11:03:00,
2013-09-17 07:43:00,68.0,62.0,-100.00,SSE,161,7.0,14.0,82,0.00,,,0.00,0.000000,,2013-09-17 11:43:00,
2013-09-17 07:52:00,68.0,62.0,-100.00,SSE,161,7.0,14.0,82,0.00,,,0.00,0.000000,,2013-09-17 11:52:00,
2013-09-17 08:02:00,68.0,62.0,-100.00,SSE,161,7.0,14.0,82,0.00,,,0.00,0.000000,,2013-09-17 12:02:00,
2013-09-17 08:42:00,67.0,61.0,-100.00,SSE,160,6.0,11.0,80,0.00,,,0.00,15.000000,,2013-09-17 12:42:00,
2013-09-17 08:52:00,67.0,61.0,-100.00,SSE,160,6.0,11.0,80,0.00,,,0.00,15.000000,,2013-09-17 12:52:00,
2013-09-17 09:02:00,67.0,61.0,-100.00,SSE,160,6.0,11.0,80,0.00,,,0.00,15.000000,,2013-09-17 13:02:00,
2013-09-17 09:42:00,68.0,61.0,-100.00,SSE,159,5.0,11.0,79,0.00,,,0.00,65.000000,,2013-09-17 13:42:00,
2013-09-17 09:52:00,68.0,61.0,-100.00,SSE,159,5.0,11.0,79,0.00,,,0.00,65.000000,,2013-09-17 13:52:00,
2013-09-17 10:02:00,68.0,61.0,-100.00,SSE,159,5.0,11.0,79,0.00,,,0.00,65.000000,,2013-09-17 14:02:00,
2013-09-17 10:42:00,70.0,61.0,-100.00,SSE,156,8.0,15.0,72,0.00,,,0.00,163.000000,,2013-09-17 14:42:00,
2013-09-17 10:52:00,70.0,61.0,-100.00,SSE,156,8.0,15.0,72,0.00,,,0.00,163.000000,,2013-09-17 14:52:00,
2013-09-17 11:02:00,70.0,61.0,-100.00,SSE,156,8.0,15.0,72,0.00,,,0.00,163.000000,,2013-09-17 15:02:00,
2013-09-17 11:44:00,71.0,59.0,-100.00,SSE,167,8.0,18.0,67,0.00,,,0.00,210.000000,,2013-09-17 15:44:00,
2013-09-17 11:53:00,71.0,59.0,-100.00,SSE,167,8.0,18.0,67,0.00,,,0.00,210.000000,,2013-09-17 15:53:00,
2013-09-17 12:03:00,71.0,59.0,-100.00,SSE,167,8.0,18.0,67,0.00,,,0.00,210.000000,,2013-09-17 16:03:00,
2013-09-17 12:42:00,75.0,61.0,-100.00,SSE,160,8.0,16.0,62,0.00,,,0.00,465.000000,,2013-09-17 16:42:00,
2013-09-17 12:54:00,75.0,61.0,-100.00,SSE,160,8.0,16.0,62,0.00,,,0.00,465.000000,,2013-09-17 16:54:00,
2013-09-17 13:03:00,75.0,61.0,-100.00,SSE,160,8.0,16.0,62,0.00,,,0.00,465.000000,,2013-09-17 17:03:00,
2013-09-17 13:43:00,78.0,60.0,-100.00,South,172,7.0,16.0,54,0.00,,,0.00,658.000000,,2013-09-17 17:43:00,
2013-09-17 13:53:00,78.0,60.0,-100.00,South,172,7.0,16.0,54,0.00,,,0.00,658.000000,,2013-09-17 17:53:00,
2013-09-17 14:02:00,78.0,60.0,-100.00,South,172,7.0,16.0,54,0.00,,,0.00,658.000000,,2013-09-17 18:02:00,
2013-09-17 14:42:00,80.0,61.0,-100.00,South,178,6.0,17.0,52,0.00,,,0.00,640.000000,,2013-09-17 18:42:00,
2013-09-17 14:52:00,80.0,61.0,-100.00,South,178,6.0,17.0,52,0.00,,,0.00,640.000000,,2013-09-17 18:52:00,
2013-09-17 15:02:00,80.0,61.0,-100.00,South,178,6.0,17.0,52,0.00,,,0.00,640.000000,,2013-09-17 19:02:00,
2013-09-17 15:42:00,81.0,61.0,-100.00,South,173,6.0,17.0,51,0.00,,,0.00,693.000000,,2013-09-17 19:42:00,
2013-09-17 15:52:00,81.0,61.0,-100.00,South,173,6.0,17.0,51,0.00,,,0.00,693.000000,,2013-09-17 19:52:00,
2013-09-17 16:02:00,81.0,61.0,-100.00,South,173,6.0,17.0,51,0.00,,,0.00,693.000000,,2013-09-17 20:02:00,
2013-09-17 16:42:00,79.0,61.0,-100.00,South,179,6.0,13.0,54,0.00,,,0.00,491.000000,,2013-09-17 20:42:00,
2013-09-17 16:52:00,79.0,61.0,-100.00,South,179,6.0,13.0,54,0.00,,,0.00,491.000000,,2013-09-17 20:52:00,
2013-09-17 17:02:00,79.0,61.0,-100.00,South,179,6.0,13.0,54,0.00,,,0.00,491.000000,,2013-09-17 21:02:00,
2013-09-17 17:44:00,77.0,60.0,-100.00,South,177,7.0,13.0,55,0.00,,,0.00,261.000000,,2013-09-17 21:44:00,
2013-09-17 17:54:00,77.0,60.0,-100.00,South,177,7.0,13.0,55,0.00,,,0.00,261.000000,,2013-09-17 21:54:00,
2013-09-17 18:04:00,77.0,60.0,-100.00,South,177,7.0,13.0,55,0.00,,,0.00,261.000000,,2013-09-17 22:04:00,
2013-09-17 18:44:00,74.0,61.0,-100.00,South,179,4.0,12.0,63,0.00,,,0.00,116.000000,,2013-09-17 22:44:00,
2013-09-17 18:53:00,74.0,61.0,-100.00,South,179,4.0,12.0,63,0.00,,,0.00,116.000000,,2013-09-17 22:53:00,
2013-09-17 19:03:00,74.0,61.0,-100.00,South,179,4.0,12.0,63,0.00,,,0.00,116.000000,,2013-09-17 23:03:00,
2013-09-17 19:42:00,72.0,65.0,-100.00,SSW,195,3.0,6.0,80,0.00,,,0.00,44.000000,,2013-09-17 23:42:00,
2013-09-17 19:52:00,72.0,65.0,-100.00,SSW,195,3.0,6.0,80,0.00,,,0.00,44.000000,,2013-09-17 23:52:00,
2013-09-17 20:03:00,72.0,65.0,-100.00,SSW,195,3.0,6.0,80,0.00,,,0.00,44.000000,,2013-09-18 00:03:00,
2013-09-17 20:42:00,67.0,63.0,-100.00,SSE,159,3.0,4.0,87,0.00,,,0.00,4.000000,,2013-09-18 00:42:00,
2013-09-17 20:52:00,67.0,63.0,-100.00,SSE,159,3.0,4.0,87,0.00,,,0.00,4.000000,,2013-09-18 00:52:00,
2013-09-17 21:02:00,67.0,63.0,-100.00,SSE,159,3.0,4.0,87,0.00,,,0.00,4.000000,,2013-09-18 01:02:00,
2013-09-17 21:42:00,66.0,63.0,-100.00,SSE,155,4.0,6.0,91,0.00,,,0.00,0.000000,,2013-09-18 01:42:00,
2013-09-17 21:53:00,66.0,63.0,-100.00,SSE,155,4.0,6.0,91,0.00,,,0.00,0.000000,,2013-09-18 01:53:00,
2013-09-17 22:03:00,66.0,63.0,-100.00,SSE,155,4.0,6.0,91,0.00,,,0.00,0.000000,,2013-09-18 02:03:00,
2013-09-17 22:43:00,63.0,61.0,-100.00,SSE,161,3.0,6.0,92,0.00,,,0.00,0.000000,,2013-09-18 02:43:00,
2013-09-17 22:52:00,63.0,61.0,-100.00,SSE,161,3.0,6.0,92,0.00,,,0.00,0.000000,,2013-09-18 02:52:00,
2013-09-17 23:02:00,63.0,61.0,-100.00,SSE,161,3.0,6.0,92,0.00,,,0.00,0.000000,,2013-09-18 03:02:00,
2013-09-17 23:44:00,62.0,60.0,-100.00,South,171,6.0,7.0,92,0.00,,,0.00,0.000000,,2013-09-18 03:44:00,
2013-09-17 23:55:00,62.0,60.0,-100.00,South,171,6.0,7.0,92,0.00,,,0.00,0.000000,,2013-09-18 03:55:00,